SCP
0 0 0 0 0 0 0 0 0 0 0 0 0 0 0 0 0 0 0 0 0 0 0 0 0 0 0 0 0 0 0 0 0 0 0 0 0 0 0 0 0 0 0 0
0 0 0 0 0 0 0 0 0 0 0 0 0 -0 -0 0 0 0 0 0 0 0 0 0 0 0 0 0 0 0 0 0 0 0 0 0 0 0 0 0 0 0 0 0
0 0 0 0 0 0 0 0 0 0 0 0 -0 0 0 0 0 0 0 0 0 0 0 0 0 0 0 0 0 0 0 0 0 0 0 0 0 0 0 0 0 0 0 0
0 0 0 0 0 0 0 0 0 0 0 0 0 0 0 0 0 0 0 0 0 0 0 0 0 0 0 0 0 0 0 0 0 0 0 -0 0 0 0 0 0 0 0 0
0 0 0 0 0 0 0 0 0 0 0 0 0 0 0 0 0 0 0 0 0 0 0 0 0 0 0 0 0 0 0 0 0 0 0 0 0 -0 0 0 0 0 0 0
0 0 0 0 0 0 0 0 0 0 0 0 0 0 0 0 0 0 0 0 0 0 0 0 0 0 0 0 0 0 0 0 0 0 0 0 0 0 0 0 0 0 0 0
0 0 0 0 0 0 0 0 0 0 0 0 0 0 0 0 0 0 0 0 0 0 0 0 0 0 0 0 0 0 0 0 0 0 0 0 0 0 0 0 0 0 -0 0
0 0 0 0 0 0 0 0 0 0 0 0 0 0 0 0 0 0 0 0 0 0 0 0 0 0 0 0 0 0 0 0 0 0 0 0 0 0 0 0 0 0 -0 0
0 0 0 0 0 0 0 0 0 0 0 0 0 0 0 0 0 0 0 0 0 0 0 0 0 0 0 0 0 0 0 0 0 0 0 0 0 0 0 0 0 -0 0 0
0 0 0 0 0 0 0 0 0 0 0 0 0 0 0 0 -0 0 0 0 0 0 0 0 0 0 0 0 0 0 0 0 0 0 0 0 0 0 0 0 0 0 0 0
0 0 0 0 0 0 0 0 0 0 0 0 0 0 0 0 0 0 0 0 0 0 0 0 0 0 0 0 0 0 0 0 0 0 0 0 0 0 0 -0 0 0 0 0
0 0 0 0 0 0 0 0 0 0 0 0 0 0 0 0 0 0 0 0 -0 0 0 0 0 0 0 0 0 0 0 0 0 0 0 -0 0 -0 -0 0 0 0 -0 0
0 0 0 0 0 0 0 0 0 0 0 0 0 0 0 0 0 0 0 0 0 -0 0 0 0 0 0 0 0 0 -0 -0 -0 -0 -0 0 0 0 0 0 0 0 0 0
0 0 0 0 0 0 0 0 0 0 0 0 0 0 0 0 0 0 0 0 0 -0 -0 0 0 0 0 0 0 0 -0 -0 -0 -0 -0 -0 -0 -0 0 -0 -0 -0 -0 0
0 0 0 0 0 0 0 0 0 0 0 0 0 0 0 0 0 0 0 0 0 -0 -0 -0 0 0 0 0 0 -0 -0 -0 -0 -0 -0 -0 -0 -0 0 -0 -0 0 -0 -0
0 0 0 0 0 0 0 0 0 0 0 0 0 -0 0 0 0 0 0 0 0 0 -0 -0 -0 -0 -0 0 0 -0 -0 -0 -0 -0 -0 -0 -0 -0 -0 -0 -0 -0 -0 -0
0 0 0 0 0 0 0 0 0 0 0 0 0 -0 0 0 0 0 0 0 0 0 -0 -0 -0 -0 -0 -0 0 0 -0 -0 -0 -0 -0 -0 -0 -0 -0 -0 -0 -0 -0 -0
0 0 0 0 0 0 0 0 0 0 0 0 0 -0 0 0 0 0 0 0 0 0 0 -0 -0 -0 -0 -0 -0 0 -0 -0 -0 -0 -0 -0 -0 -0 -0 -0 -0 -0 -0 -0
0 0 0 0 0 0 0 0 0 0 0 0 0 -0 0 0 0 0 0 0 0 0 0 0 0 -0 -0 -0 -0 -0 -0 -0 -0 -0 -0 -0 -0 -0 -0 0 0 0 0 0
0 0 0 0 0 0 0 0 0 0 0 0 0 0 0 0 0 0 0 0 0 0 0 0 0 0 0 -0 -0 -0 -0 -0 0 0 0 0 0 0 0 0 0 -0 -0 -0
0 0 0 0 0 0 0 0 0 0 0 0 0 0 -0 0 0 0 0 0 0 0 0 0 0 0 0 0 0 -0 -0 -0 0 0 0 0 0 0 0 -0 0 0 0 0
0 0 0 0 0 0 0 0 0 0 0 0 0 -0 -0 0 0 0 0 0 0 0 0 0 0 0 0 0 0 0 -0 -0 -0 -0 0 0 -0 0 -0 0 0 0 0 0
0 0 0 0 0 0 0 0 -0 0 0 0 0 0 0 0 0 0 0 0 0 0 0 0 0 0 0 0 0 0 0 0 0 -0 0 0 0 -0 -0 0 0 0 0 0
0 0 0 0 0 0 0 0 0 0 0 0 0 0 0 0 0 0 0 0 0 0 0 0 0 0 0 0 0 0 0 0 0 0 0 0 0 0 0 0 0 0 0 0
0 0 0 0 0 0 0 0 0 0 0 0 0 0 0 0 0 0 0 0 0 0 0 0 0 0 0 0 0 0 0 0 0 0 0 0 0 0 0 0 0 0 0 0
0 0 0 0 0 0 0 0 0 0 0 0 0 0 0 0 0 0 0 0 0 0 0 0 0 0 0 0 0 0 0 0 0 0 0 0 0 0 0 0 0 0 0 0
Wind_Speed_500mb
3 7 7 13 11 5 3 1 5 2 4 6 13 27 28 34 45 35 27 26 19 12 18 28 35 40 43 45 57 56 73 66 59 56 57 51 44 35 26 24 31 31 52 39
7 6 1 11 7 6 6 5 6 9 7 1 13 37 30 20 28 49 36 25 15 13 21 28 34 40 43 48 56 56 71 61 57 56 53 47 38 30 23 24 23 27 52 44
9 5 7 4 3 5 3 6 5 6 12 8 14 18 10 8 12 39 31 21 14 15 19 27 34 39 40 49 60 59 67 57 53 51 44 35 25 19 11 20 25 37 52 47
6 6 8 4 5 9 3 4 7 4 8 4 9 10 11 8 4 11 26 19 16 15 18 21 30 35 38 44 52 57 63 55 44 39 37 29 28 18 16 12 15 37 48 49
6 10 6 5 4 7 6 5 5 1 2 6 8 5 15 4 9 15 21 26 20 15 12 14 24 29 32 40 48 59 57 49 41 33 30 27 21 24 23 10 15 29 37 43
5 4 4 3 6 8 9 4 3 4 3 4 7 9 12 6 10 5 10 25 29 14 7 9 18 23 29 35 41 55 57 50 37 29 27 25 30 29 22 10 17 26 37 40
5 5 3 7 7 6 4 7 6 9 6 8 5 3 20 11 12 10 18 33 27 14 7 5 15 21 26 32 39 48 58 52 36 33 27 25 29 32 22 27 24 32 35 42
11 5 13 7 6 9 9 9 8 9 3 8 5 12 11 7 14 15 31 36 25 16 9 1 10 17 22 27 34 42 55 52 38 21 27 30 31 19 36 40 36 38 34 32
10 3 3 7 5 4 7 6 3 9 5 5 7 14 12 3 7 19 33 37 28 20 14 5 4 10 17 24 31 36 47 52 38 28 36 34 40 44 38 43 45 51 49 40
2 8 2 0 3 5 4 4 6 5 2 7 10 10 11 12 19 15 20 38 32 27 21 13 3 5 13 19 24 24 34 51 61 53 47 48 51 52 49 44 42 45 50 50
3 6 2 5 12 16 5 4 4 4 8 7 5 11 11 10 20 28 24 46 42 41 30 19 11 5 11 15 18 22 22 37 47 55 62 72 81 80 80 84 86 86 85 81
6 8 8 13 3 4 9 13 11 8 9 5 2 13 4 9 7 24 33 44 43 41 35 25 17 11 12 14 15 20 30 32 41 53 51 61 60 70 73 73 75 73 76 75
12 1 4 13 7 6 9 10 9 7 5 11 9 11 1 6 6 13 30 41 49 49 41 34 27 19 17 19 16 11 21 31 30 34 37 47 53 54 60 64 65 65 67 67
16 6 12 13 2 8 9 11 14 13 6 8 19 13 10 12 15 16 26 46 57 58 50 43 35 28 24 25 21 16 17 22 25 24 27 31 36 43 44 47 51 50 49 51
9 13 8 10 11 9 11 10 17 26 39 17 9 32 37 29 22 41 52 53 62 64 58 53 47 39 32 33 33 27 22 24 23 27 23 27 33 35 41 44 46 46 46 48
3 4 5 9 10 17 16 18 27 35 37 38 37 50 31 40 40 29 49 60 70 74 68 63 55 48 42 40 40 37 31 30 31 32 34 35 35 34 35 38 40 41 42 41
14 10 6 7 4 8 13 36 44 32 18 36 32 62 4 12 21 49 52 70 81 82 76 73 68 60 51 45 46 46 42 39 39 40 38 37 37 37 35 32 33 35 36 36
13 11 5 5 6 7 12 8 21 38 46 44 37 51 33 33 57 63 62 66 84 83 80 77 74 68 58 50 50 48 49 47 46 45 43 40 38 38 37 36 31 29 30 30
9 10 6 7 7 15 12 12 15 16 18 39 47 56 63 44 32 61 51 63 70 85 81 76 77 71 67 61 57 58 56 54 53 52 48 45 42 38 37 36 35 34 32 30
6 3 10 6 9 15 11 3 7 11 13 5 26 38 26 22 15 11 30 61 65 68 83 77 77 78 76 70 65 66 64 63 61 58 53 48 44 41 39 39 38 36 33 32
13 7 22 9 9 15 24 14 8 9 10 1 3 10 16 15 29 16 11 23 52 66 75 76 74 85 84 78 72 71 72 72 63 59 56 53 50 46 43 40 38 35 34 33
24 20 11 9 11 22 27 16 17 14 7 6 1 9 8 19 34 38 36 32 31 55 69 76 75 83 88 85 79 75 77 71 67 66 64 61 56 52 49 47 46 45 41 37
11 15 16 26 19 6 45 18 54 21 17 14 15 36 26 21 22 25 25 29 23 35 59 69 72 79 89 91 87 79 70 73 74 74 71 67 62 59 55 54 52 50 47 44
9 20 6 6 16 26 31 51 64 52 51 51 43 33 42 41 31 30 29 25 26 34 48 62 71 76 88 94 92 79 70 72 79 79 77 73 71 67 63 60 57 55 53 51
11 23 13 13 11 15 37 62 75 73 73 72 70 65 56 48 46 34 33 30 32 36 44 56 69 76 83 90 93 87 78 74 81 81 80 80 76 73 69 67 65 63 58 51
16 15 17 17 22 32 43 56 47 50 55 62 70 61 64 65 60 43 43 38 37 41 44 53 66 76 78 85 93 92 86 80 80 84 85 85 81 78 75 72 69 67 62 58
Wind_Direction_500mb
178 85 206 218 201 182 124 254 287 253 191 260 237 269 265 258 210 213 223 240 224 261 309 316 325 334 339 345 340 348 344 345 343 343 330 323 314 307 278 256 257 221 197 188
38 219 203 125 114 106 73 78 274 293 171 248 292 279 277 234 208 204 211 228 214 271 302 319 333 340 349 347 348 349 351 347 351 343 337 325 317 304 281 245 232 209 187 190
172 196 158 118 124 143 192 160 239 237 329 279 319 295 337 356 180 202 205 204 238 275 298 321 336 344 351 356 358 348 353 353 358 345 352 353 341 335 315 247 213 188 184 192
218 170 150 141 213 162 220 127 156 302 36 267 47 284 307 294 211 191 199 204 227 230 291 322 339 345 356 3 2 357 358 356 3 355 11 19 18 16 20 171 184 181 189 192
215 160 164 179 212 146 181 136 146 61 300 349 332 66 272 296 259 237 215 215 201 225 290 330 345 347 2 6 6 5 2 7 6 0 15 7 22 3 358 199 187 179 190 192
120 139 158 149 58 75 151 126 91 35 83 12 243 127 284 223 214 230 183 198 180 207 265 330 347 354 11 12 11 10 14 12 13 13 32 16 49 42 41 110 171 166 181 186
134 197 109 139 88 19 78 70 351 353 3 226 186 91 249 261 217 200 167 168 173 192 229 331 352 4 16 18 17 12 14 18 17 5 49 48 69 56 66 125 151 157 176 190
157 285 175 183 200 182 181 165 161 215 258 282 55 237 251 284 170 160 161 167 173 182 206 313 357 9 24 25 26 20 23 25 33 36 68 75 82 81 107 118 114 143 166 149
151 116 45 65 12 126 172 192 191 106 41 42 228 276 285 68 150 131 146 164 176 186 198 199 359 19 41 41 41 29 39 44 53 66 89 90 97 108 116 114 111 136 132 133
103 108 160 242 58 63 140 179 71 360 155 275 283 268 242 234 221 201 176 184 184 188 197 195 168 46 66 60 57 44 55 53 68 75 90 100 102 105 108 106 122 122 118 119
106 103 219 116 201 181 148 221 189 146 167 194 287 266 206 242 215 203 201 194 189 188 195 194 174 138 101 88 77 62 80 62 83 84 92 95 99 99 100 104 105 105 107 107
146 133 181 203 158 145 180 192 171 150 219 230 133 273 330 339 248 185 201 195 195 195 191 191 184 163 137 119 104 106 91 79 86 88 99 99 102 103 108 105 107 108 110 113
171 226 50 340 354 344 205 193 184 116 83 209 154 256 325 323 345 195 196 194 192 191 192 189 189 176 164 148 149 137 98 97 97 96 94 98 102 104 105 109 111 113 115 119
121 148 192 194 182 119 193 196 189 160 166 186 231 278 232 231 236 238 204 196 192 193 196 193 190 186 178 169 174 177 140 125 115 108 102 104 100 102 101 102 108 110 111 114
128 193 199 245 233 204 203 198 193 205 222 195 211 225 246 245 216 223 218 200 193 195 198 198 194 191 186 182 181 188 172 155 146 151 148 136 126 122 123 124 124 123 126 123
125 199 115 294 241 221 242 220 220 218 232 239 248 271 249 247 249 227 222 205 199 202 205 202 198 195 193 192 187 190 189 171 155 150 149 147 140 135 132 128 127 128 127 125
155 149 142 254 321 355 300 223 218 221 214 223 226 244 125 251 231 233 223 211 208 213 212 206 202 200 196 196 194 193 190 183 172 168 167 162 153 146 142 141 140 138 133 130
150 151 135 228 18 269 236 186 219 223 236 227 246 258 245 245 251 253 246 230 218 221 219 213 205 201 199 194 198 195 195 190 185 179 176 172 167 160 155 152 151 148 144 143
172 149 161 162 210 304 281 226 173 178 259 229 233 251 255 258 267 260 244 239 237 229 230 222 211 203 198 196 196 198 197 196 193 189 185 180 175 171 169 166 163 163 158 155
161 96 162 139 180 227 240 237 211 162 291 283 217 250 262 181 229 261 252 239 235 232 230 221 213 205 200 198 198 200 201 201 199 196 191 187 183 181 181 178 178 175 173 168
164 173 204 184 243 277 250 202 153 117 231 157 244 274 251 196 230 258 268 251 237 233 227 221 214 207 203 200 200 202 204 206 203 200 197 195 193 191 190 190 190 189 185 181
173 166 184 172 218 267 185 100 177 210 203 191 126 17 4 267 264 258 256 272 250 226 219 218 213 210 206 204 204 205 209 207 204 202 203 201 199 199 198 198 199 198 198 195
209 183 175 191 208 223 189 225 211 218 229 236 277 316 318 314 283 256 260 267 261 230 220 218 216 212 210 207 208 209 212 207 204 205 206 206 205 204 206 207 208 208 207 205
237 215 230 115 239 228 225 229 244 250 255 263 273 280 293 293 290 271 256 253 245 228 223 221 219 216 213 211 212 212 214 209 208 208 207 209 210 209 209 210 213 217 216 214
183 158 175 263 274 317 252 243 250 257 262 266 268 270 269 279 277 274 269 249 241 235 227 225 226 222 219 215 215 213 213 212 211 212 210 211 214 215 216 216 217 219 221 224
181 177 185 221 203 209 245 255 266 264 274 281 274 280 276 264 258 269 271 264 249 240 232 227 226 227 225 221 219 216 214 214 215 215 214 214 216 218 220 222 221 221 222 224
Wind_Speed_850mb
3 7 7 13 11 5 3 1 5 2 4 6 13 27 28 34 45 35 27 26 19 12 18 28 35 40 43 45 57 56 73 66 59 56 57 51 44 35 26 24 31 31 52 39
7 6 1 11 7 6 6 5 6 9 7 1 13 37 30 20 28 49 36 25 15 13 21 28 34 40 43 48 56 56 71 61 57 56 53 47 38 30 23 24 23 27 52 44
9 5 7 4 3 5 3 6 5 6 12 8 14 18 10 8 12 39 31 21 14 15 19 27 34 39 40 49 60 59 67 57 53 51 44 35 25 19 11 20 25 37 52 47
6 6 8 4 5 9 3 4 7 4 8 4 9 10 11 8 4 11 26 19 16 15 18 21 30 35 38 44 52 57 63 55 44 39 37 29 28 18 16 12 15 37 48 49
6 10 6 5 4 7 6 5 5 1 2 6 8 5 15 4 9 15 21 26 20 15 12 14 24 29 32 40 48 59 57 49 41 33 30 27 21 24 23 10 15 29 37 43
5 4 4 3 6 8 9 4 3 4 3 4 7 9 12 6 10 5 10 25 29 14 7 9 18 23 29 35 41 55 57 50 37 29 27 25 30 29 22 10 17 26 37 40
5 5 3 7 7 6 4 7 6 9 6 8 5 3 20 11 12 10 18 33 27 14 7 5 15 21 26 32 39 48 58 52 36 33 27 25 29 32 22 27 24 32 35 42
11 5 13 7 6 9 9 9 8 9 3 8 5 12 11 7 14 15 31 36 25 16 9 1 10 17 22 27 34 42 55 52 38 21 27 30 31 19 36 40 36 38 34 32
10 3 3 7 5 4 7 6 3 9 5 5 7 14 12 3 7 19 33 37 28 20 14 5 4 10 17 24 31 36 47 52 38 28 36 34 40 44 38 43 45 51 49 40
2 8 2 0 3 5 4 4 6 5 2 7 10 10 11 12 19 15 20 38 32 27 21 13 3 5 13 19 24 24 34 51 61 53 47 48 51 52 49 44 42 45 50 50
3 6 2 5 12 16 5 4 4 4 8 7 5 11 11 10 20 28 24 46 42 41 30 19 11 5 11 15 18 22 22 37 47 55 62 72 81 80 80 84 86 86 85 81
6 8 8 13 3 4 9 13 11 8 9 5 2 13 4 9 7 24 33 44 43 41 35 25 17 11 12 14 15 20 30 32 41 53 51 61 60 70 73 73 75 73 76 75
12 1 4 13 7 6 9 10 9 7 5 11 9 11 1 6 6 13 30 41 49 49 41 34 27 19 17 19 16 11 21 31 30 34 37 47 53 54 60 64 65 65 67 67
16 6 12 13 2 8 9 11 14 13 6 8 19 13 10 12 15 16 26 46 57 58 50 43 35 28 24 25 21 16 17 22 25 24 27 31 36 43 44 47 51 50 49 51
9 13 8 10 11 9 11 10 17 26 39 17 9 32 37 29 22 41 52 53 62 64 58 53 47 39 32 33 33 27 22 24 23 27 23 27 33 35 41 44 46 46 46 48
3 4 5 9 10 17 16 18 27 35 37 38 37 50 31 40 40 29 49 60 70 74 68 63 55 48 42 40 40 37 31 30 31 32 34 35 35 34 35 38 40 41 42 41
14 10 6 7 4 8 13 36 44 32 18 36 32 62 4 12 21 49 52 70 81 82 76 73 68 60 51 45 46 46 42 39 39 40 38 37 37 37 35 32 33 35 36 36
13 11 5 5 6 7 12 8 21 38 46 44 37 51 33 33 57 63 62 66 84 83 80 77 74 68 58 50 50 48 49 47 46 45 43 40 38 38 37 36 31 29 30 30
9 10 6 7 7 15 12 12 15 16 18 39 47 56 63 44 32 61 51 63 70 85 81 76 77 71 67 61 57 58 56 54 53 52 48 45 42 38 37 36 35 34 32 30
6 3 10 6 9 15 11 3 7 11 13 5 26 38 26 22 15 11 30 61 65 68 83 77 77 78 76 70 65 66 64 63 61 58 53 48 44 41 39 39 38 36 33 32
13 7 22 9 9 15 24 14 8 9 10 1 3 10 16 15 29 16 11 23 52 66 75 76 74 85 84 78 72 71 72 72 63 59 56 53 50 46 43 40 38 35 34 33
24 20 11 9 11 22 27 16 17 14 7 6 1 9 8 19 34 38 36 32 31 55 69 76 75 83 88 85 79 75 77 71 67 66 64 61 56 52 49 47 46 45 41 37
11 15 16 26 19 6 45 18 54 21 17 14 15 36 26 21 22 25 25 29 23 35 59 69 72 79 89 91 87 79 70 73 74 74 71 67 62 59 55 54 52 50 47 44
9 20 6 6 16 26 31 51 64 52 51 51 43 33 42 41 31 30 29 25 26 34 48 62 71 76 88 94 92 79 70 72 79 79 77 73 71 67 63 60 57 55 53 51
11 23 13 13 11 15 37 62 75 73 73 72 70 65 56 48 46 34 33 30 32 36 44 56 69 76 83 90 93 87 78 74 81 81 80 80 76 73 69 67 65 63 58 51
16 15 17 17 22 32 43 56 47 50 55 62 70 61 64 65 60 43 43 38 37 41 44 53 66 76 78 85 93 92 86 80 80 84 85 85 81 78 75 72 69 67 62 58
Wind_Direction_850mb
178 85 206 218 201 182 124 254 287 253 191 260 237 269 265 258 210 213 223 240 224 261 309 316 325 334 339 345 340 348 344 345 343 343 330 323 314 307 278 256 257 221 197 188
38 219 203 125 114 106 73 78 274 293 171 248 292 279 277 234 208 204 211 228 214 271 302 319 333 340 349 347 348 349 351 347 351 343 337 325 317 304 281 245 232 209 187 190
172 196 158 118 124 143 192 160 239 237 329 279 319 295 337 356 180 202 205 204 238 275 298 321 336 344 351 356 358 348 353 353 358 345 352 353 341 335 315 247 213 188 184 192
218 170 150 141 213 162 220 127 156 302 36 267 47 284 307 294 211 191 199 204 227 230 291 322 339 345 356 3 2 357 358 356 3 355 11 19 18 16 20 171 184 181 189 192
215 160 164 179 212 146 181 136 146 61 300 349 332 66 272 296 259 237 215 215 201 225 290 330 345 347 2 6 6 5 2 7 6 0 15 7 22 3 358 199 187 179 190 192
120 139 158 149 58 75 151 126 91 35 83 12 243 127 284 223 214 230 183 198 180 207 265 330 347 354 11 12 11 10 14 12 13 13 32 16 49 42 41 110 171 166 181 186
134 197 109 139 88 19 78 70 351 353 3 226 186 91 249 261 217 200 167 168 173 192 229 331 352 4 16 18 17 12 14 18 17 5 49 48 69 56 66 125 151 157 176 190
157 285 175 183 200 182 181 165 161 215 258 282 55 237 251 284 170 160 161 167 173 182 206 313 357 9 24 25 26 20 23 25 33 36 68 75 82 81 107 118 114 143 166 149
151 116 45 65 12 126 172 192 191 106 41 42 228 276 285 68 150 131 146 164 176 186 198 199 359 19 41 41 41 29 39 44 53 66 89 90 97 108 116 114 111 136 132 133
103 108 160 242 58 63 140 179 71 360 155 275 283 268 242 234 221 201 176 184 184 188 197 195 168 46 66 60 57 44 55 53 68 75 90 100 102 105 108 106 122 122 118 119
106 103 219 116 201 181 148 221 189 146 167 194 287 266 206 242 215 203 201 194 189 188 195 194 174 138 101 88 77 62 80 62 83 84 92 95 99 99 100 104 105 105 107 107
146 133 181 203 158 145 180 192 171 150 219 230 133 273 330 339 248 185 201 195 195 195 191 191 184 163 137 119 104 106 91 79 86 88 99 99 102 103 108 105 107 108 110 113
171 226 50 340 354 344 205 193 184 116 83 209 154 256 325 323 345 195 196 194 192 191 192 189 189 176 164 148 149 137 98 97 97 96 94 98 102 104 105 109 111 113 115 119
121 148 192 194 182 119 193 196 189 160 166 186 231 278 232 231 236 238 204 196 192 193 196 193 190 186 178 169 174 177 140 125 115 108 102 104 100 102 101 102 108 110 111 114
128 193 199 245 233 204 203 198 193 205 222 195 211 225 246 245 216 223 218 200 193 195 198 198 194 191 186 182 181 188 172 155 146 151 148 136 126 122 123 124 124 123 126 123
125 199 115 294 241 221 242 220 220 218 232 239 248 271 249 247 249 227 222 205 199 202 205 202 198 195 193 192 187 190 189 171 155 150 149 147 140 135 132 128 127 128 127 125
155 149 142 254 321 355 300 223 218 221 214 223 226 244 125 251 231 233 223 211 208 213 212 206 202 200 196 196 194 193 190 183 172 168 167 162 153 146 142 141 140 138 133 130
150 151 135 228 18 269 236 186 219 223 236 227 246 258 245 245 251 253 246 230 218 221 219 213 205 201 199 194 198 195 195 190 185 179 176 172 167 160 155 152 151 148 144 143
172 149 161 162 210 304 281 226 173 178 259 229 233 251 255 258 267 260 244 239 237 229 230 222 211 203 198 196 196 198 197 196 193 189 185 180 175 171 169 166 163 163 158 155
161 96 162 139 180 227 240 237 211 162 291 283 217 250 262 181 229 261 252 239 235 232 230 221 213 205 200 198 198 200 201 201 199 196 191 187 183 181 181 178 178 175 173 168
164 173 204 184 243 277 250 202 153 117 231 157 244 274 251 196 230 258 268 251 237 233 227 221 214 207 203 200 200 202 204 206 203 200 197 195 193 191 190 190 190 189 185 181
173 166 184 172 218 267 185 100 177 210 203 191 126 17 4 267 264 258 256 272 250 226 219 218 213 210 206 204 204 205 209 207 204 202 203 201 199 199 198 198 199 198 198 195
209 183 175 191 208 223 189 225 211 218 229 236 277 316 318 314 283 256 260 267 261 230 220 218 216 212 210 207 208 209 212 207 204 205 206 206 205 204 206 207 208 208 207 205
237 215 230 115 239 228 225 229 244 250 255 263 273 280 293 293 290 271 256 253 245 228 223 221 219 216 213 211 212 212 214 209 208 208 207 209 210 209 209 210 213 217 216 214
183 158 175 263 274 317 252 243 250 257 262 266 268 270 269 279 277 274 269 249 241 235 227 225 226 222 219 215 215 213 213 212 211 212 210 211 214 215 216 216 217 219 221 224
181 177 185 221 203 209 245 255 266 264 274 281 274 280 276 264 258 269 271 264 249 240 232 227 226 227 225 221 219 216 214 214 215 215 214 214 216 218 220 222 221 221 222 224